Lid_Strength_Index
9 12 14 12 11 10 12 12 13 12 11 12 12 12 11 10 10 10 10 9 9 8 7 7 6 4 3 3 2 2 2 1 1 1 1 1 1 1 1 1 1 1 1 2
11 13 10 9 10 10 12 13 14 13 11 12 13 12 10 10 10 10 9 9 9 8 8 7 7 6 3 3 3 2 2 1 1 1 1 1 1 0 0 0 0 0 1 2
13 11 9 10 11 12 13 14 14 13 12 13 14 15 13 11 10 10 9 9 8 8 8 8 7 7 7 4 3 3 2 2 1 1 1 1 1 1 2 1 1 1 1 1
12 10 11 11 11 11 14 11 12 13 15 17 13 19 15 13 12 11 11 10 9 9 9 9 8 8 8 7 6 7 3 3 2 1 2 2 2 3 1 2 0 0 2 1
13 12 12 12 11 10 13 11 12 13 15 16 16 18 16 14 13 12 11 11 10 10 9 10 9 8 8 8 8 7 7 6 4 2 2 2 2 1 1 1 1 1 1 1
12 11 11 11 10 10 10 12 12 13 15 19 16 17 17 15 13 13 13 12 10 10 9 9 8 7 7 6 5 5 7 7 6 3 2 2 2 2 2 2 2 1 1 1
13 13 12 10 12 11 11 13 18 19 20 20 16 17 16 13 12 13 12 12 11 9 9 9 9 8 6 6 4 4 6 7 7 4 2 2 2 1 2 2 2 2 2 3
15 17 13 11 12 13 12 13 17 21 20 20 17 20 16 12 12 11 11 11 10 10 9 9 8 7 7 6 5 4 4 6 6 5 3 2 2 3 2 1 2 2 2 3
15 15 11 10 10 10 13 15 12 16 20 20 17 16 13 11 12 12 12 11 10 9 9 8 8 7 7 6 5 4 4 4 3 3 3 3 3 2 2 2 3 3 4 5
12 15 12 11 10 10 11 10 15 15 21 22 19 18 17 14 12 11 12 11 10 9 9 8 8 8 7 6 5 4 3 4 4 4 4 4 4 3 3 4 5 5 6 6
11 13 14 13 14 13 13 13 13 13 15 19 21 18 14 13 12 12 11 10 10 9 9 8 8 8 7 7 6 5 4 4 4 4 5 5 5 4 4 5 5 6 7 6
12 13 18 16 12 10 11 12 12 15 18 17 17 17 12 12 11 11 11 9 9 8 8 9 8 8 8 7 7 6 5 5 4 4 5 5 5 5 5 5 5 6 6 7
11 14 20 18 15 14 15 14 12 12 14 17 19 17 12 12 13 11 10 10 9 9 9 9 8 8 8 8 7 7 7 6 5 4 4 5 5 5 5 6 7 7 8 8
10 13 15 18 17 14 16 15 13 13 16 16 17 15 14 12 12 11 10 9 9 9 9 9 9 8 8 8 8 8 7 7 6 6 6 7 7 8 8 8 9 9 9 10
11 17 15 14 14 14 15 15 14 14 14 16 15 15 13 13 12 11 10 9 9 9 9 9 8 8 8 8 8 8 8 8 8 8 9 9 10 9 10 11 11 12 12 12
11 18 15 17 14 14 17 13 14 13 13 13 13 14 10 11 12 11 10 9 9 9 9 8 8 8 8 8 9 9 9 9 9 10 11 11 12 13 13 13 13 13 13 13
13 16 19 20 14 15 17 14 14 13 12 13 15 12 11 12 11 11 10 9 9 8 9 8 8 8 9 9 9 10 10 10 12 13 13 13 14 14 14 14 14 14 14 15
14 16 15 19 17 20 15 12 11 13 12 11 11 11 11 10 10 10 9 9 9 8 9 9 9 9 9 10 11 11 11 13 14 14 14 14 14 14 14 15 15 15 15 15
11 14 16 19 20 16 14 13 13 14 13 10 11 10 10 10 11 11 9 8 7 8 8 9 9 10 11 11 11 13 14 14 14 15 15 15 16 16 16 16 16 17 16 15
12 13 14 16 18 20 16 12 10 11 15 11 10 10 10 11 12 11 9 9 8 9 9 10 11 11 12 13 13 14 14 15 15 15 15 16 16 16 16 17 17 17 17 16
14 14 15 15 17 16 13 13 10 17 15 13 11 10 11 11 10 10 10 10 10 10 11 12 12 13 13 13 14 14 15 16 16 15 16 16 16 15 16 18 18 18 18 17
15 16 16 15 17 18 13 13 13 12 13 12 12 11 10 11 11 12 12 12 12 13 13 14 14 15 14 14 14 15 16 16 16 17 17 17 17 17 17 19 18 19 19 19
15 12 14 14 14 14 13 14 12 11 12 13 12 12 11 12 13 13 13 13 13 14 14 15 16 16 17 15 16 17 18 17 18 18 17 18 18 18 18 19 18 18 18 19
15 14 13 14 14 15 12 13 12 12 12 12 12 12 12 13 13 14 14 14 15 15 16 16 17 18 19 19 18 18 18 18 17 17 18 20 19 18 18 17 17 18 19 20
14 13 14 15 15 14 13 12 11 12 13 13 13 13 13 13 14 14 15 15 15 16 17 17 17 18 19 19 20 21 20 18 19 21 20 20 20 21 20 19 20 19 19 18
15 14 14 14 12 12 13 12 11 12 13 12 13 14 14 13 14 14 15 15 16 17 18 18 19 19 20 21 22 24 25 22 20 19 20 22 21 21 20 21 20 14 13 12